TimePST,TemperatureF,Dew PointF,Humidity,Sea Level PressureIn,VisibilityMPH,Wind Direction,Wind SpeedMPH,Gust SpeedMPH,PrecipitationIn,Events,Conditions,WindDirDegrees,DateUTC
12:15 AM,39.2,23.0,52,30.13,10.0,SSW,6.9,-,N/A,,Mostly Cloudy,210,2013-01-08 08:15:00
12:35 AM,39.2,23.0,52,30.14,10.0,SSW,6.9,-,N/A,,Mostly Cloudy,210,2013-01-08 08:35:00
12:55 AM,39.2,24.8,56,30.12,10.0,SSW,9.2,-,N/A,,Mostly Cloudy,210,2013-01-08 08:55:00
1:15 AM,39.2,24.8,56,30.14,10.0,WSW,6.9,-,N/A,,Scattered Clouds,250,2013-01-08 09:15:00
1:35 AM,39.2,24.8,56,30.14,10.0,WSW,8.1,-,N/A,,Mostly Cloudy,250,2013-01-08 09:35:00
1:55 AM,39.2,24.8,56,30.14,10.0,SW,12.7,18.4,N/A,,Overcast,220,2013-01-08 09:55:00
2:15 AM,39.2,24.8,56,30.14,10.0,SW,13.8,19.6,N/A,,Mostly Cloudy,220,2013-01-08 10:15:00
2:35 AM,39.2,26.6,61,30.14,10.0,SW,13.8,-,N/A,,Overcast,220,2013-01-08 10:35:00
2:55 AM,39.2,26.6,61,30.14,10.0,SW,17.3,21.9,N/A,,Overcast,220,2013-01-08 10:55:00
3:15 AM,39.2,26.6,61,30.13,10.0,SSW,16.1,23.0,N/A,,Mostly Cloudy,210,2013-01-08 11:15:00
3:35 AM,39.2,26.6,61,30.13,10.0,SSW,17.3,21.9,N/A,,Mostly Cloudy,210,2013-01-08 11:35:00
3:55 AM,39.2,26.6,61,30.12,10.0,SSW,13.8,25.3,N/A,,Mostly Cloudy,210,2013-01-08 11:55:00
4:15 AM,39.2,26.6,61,30.12,10.0,SSW,17.3,21.9,N/A,,Scattered Clouds,210,2013-01-08 12:15:00
4:35 AM,39.2,26.6,61,30.11,10.0,SW,15.0,23.0,N/A,,Mostly Cloudy,220,2013-01-08 12:35:00
4:55 AM,39.2,28.4,65,30.11,10.0,SW,16.1,23.0,N/A,,Mostly Cloudy,220,2013-01-08 12:55:00
5:35 AM,39.2,28.4,65,30.10,10.0,SW,13.8,20.7,N/A,,Scattered Clouds,220,2013-01-08 13:35:00
5:55 AM,41.0,28.4,61,30.11,10.0,SW,13.8,21.9,N/A,,Scattered Clouds,220,2013-01-08 13:55:00
6:15 AM,41.0,28.4,61,30.10,10.0,SW,18.4,25.3,N/A,,Scattered Clouds,220,2013-01-08 14:15:00
6:35 AM,41.0,28.4,61,30.11,10.0,SW,17.3,23.0,N/A,,Scattered Clouds,220,2013-01-08 14:35:00
6:55 AM,41.0,30.2,65,30.10,10.0,SSW,17.3,25.3,N/A,,Mostly Cloudy,210,2013-01-08 14:55:00
7:15 AM,41.0,30.2,65,30.10,10.0,SSW,18.4,24.2,N/A,,Mostly Cloudy,210,2013-01-08 15:15:00
7:35 AM,41.0,30.2,65,30.11,10.0,SSW,18.4,23.0,N/A,,Scattered Clouds,210,2013-01-08 15:35:00
7:55 AM,41.0,30.2,65,30.11,10.0,SW,13.8,21.9,N/A,,Partly Cloudy,220,2013-01-08 15:55:00
8:15 AM,41.0,30.2,65,30.11,10.0,SW,16.1,25.3,N/A,,Scattered Clouds,220,2013-01-08 16:15:00
8:35 AM,42.8,30.2,61,30.12,10.0,SW,21.9,26.5,N/A,,Partly Cloudy,220,2013-01-08 16:35:00
8:55 AM,42.8,30.2,61,30.13,10.0,SW,21.9,26.5,N/A,,Partly Cloudy,220,2013-01-08 16:55:00
9:15 AM,42.8,30.2,61,30.14,10.0,SW,15.0,26.5,N/A,,Clear,220,2013-01-08 17:15:00
9:35 AM,44.6,30.2,57,30.14,10.0,SSW,17.3,28.8,N/A,,Clear,210,2013-01-08 17:35:00
9:55 AM,44.6,32.0,61,30.15,10.0,SSW,19.6,27.6,N/A,,Clear,210,2013-01-08 17:55:00
10:15 AM,44.6,32.0,61,30.15,10.0,SW,20.7,28.8,N/A,,Clear,220,2013-01-08 18:15:00
10:35 AM,44.6,32.0,61,30.15,10.0,SSW,16.1,23.0,N/A,,Clear,210,2013-01-08 18:35:00
10:55 AM,44.6,32.0,61,30.15,10.0,SW,18.4,23.0,N/A,,Clear,220,2013-01-08 18:55:00
11:15 AM,46.4,32.0,57,30.14,10.0,SW,21.9,31.1,N/A,,Clear,230,2013-01-08 19:15:00
11:55 AM,46.4,30.2,53,30.13,10.0,SW,24.2,28.8,N/A,,Clear,230,2013-01-08 19:55:00
12:15 PM,46.4,28.4,50,30.12,10.0,SW,18.4,26.5,N/A,,Clear,220,2013-01-08 20:15:00
12:35 PM,46.4,28.4,50,30.12,10.0,WSW,9.2,19.6,N/A,,Clear,240,2013-01-08 20:35:00
12:55 PM,46.4,28.4,50,30.10,10.0,WSW,17.3,28.8,N/A,,Clear,240,2013-01-08 20:55:00
1:15 PM,48.2,28.4,46,30.10,10.0,SW,17.3,-,N/A,,Clear,230,2013-01-08 21:15:00
1:35 PM,48.2,28.4,46,30.10,10.0,SW,24.2,31.1,N/A,,Clear,220,2013-01-08 21:35:00
1:55 PM,48.2,28.4,46,30.10,10.0,SW,17.3,28.8,N/A,,Clear,220,2013-01-08 21:55:00
2:15 PM,46.4,28.4,50,30.10,10.0,SW,19.6,28.8,N/A,,Clear,220,2013-01-08 22:15:00
2:35 PM,48.2,28.4,46,30.09,10.0,SW,16.1,27.6,N/A,,Clear,220,2013-01-08 22:35:00
2:55 PM,48.2,28.4,46,30.10,10.0,SW,18.4,23.0,N/A,,Clear,220,2013-01-08 22:55:00
3:15 PM,48.2,28.4,46,30.10,10.0,SW,17.3,26.5,N/A,,Clear,220,2013-01-08 23:15:00
3:35 PM,46.4,28.4,50,30.10,10.0,SSW,12.7,24.2,N/A,,Clear,210,2013-01-08 23:35:00
3:55 PM,46.4,28.4,50,30.09,10.0,SSW,17.3,24.2,N/A,,Clear,210,2013-01-08 23:55:00
4:35 PM,44.6,26.6,49,30.08,10.0,South,13.8,-,N/A,,Clear,190,2013-01-09 00:35:00
4:55 PM,44.6,26.6,49,30.08,10.0,South,11.5,18.4,N/A,,Clear,180,2013-01-09 00:55:00
5:15 PM,44.6,26.6,49,30.08,10.0,South,11.5,-,N/A,,Clear,180,2013-01-09 01:15:00
5:55 PM,42.8,28.4,57,30.06,10.0,South,16.1,-,N/A,,Clear,190,2013-01-09 01:55:00
6:15 PM,41.0,26.6,57,30.06,10.0,South,18.4,-,N/A,,Clear,190,2013-01-09 02:15:00
6:35 PM,42.8,28.4,57,30.06,10.0,SSW,20.7,-,N/A,,Clear,200,2013-01-09 02:35:00
6:55 PM,42.8,28.4,57,30.05,10.0,SSW,15.0,23.0,N/A,,Clear,200,2013-01-09 02:55:00
7:15 PM,41.0,28.4,61,30.06,10.0,South,13.8,-,N/A,,Clear,190,2013-01-09 03:15:00
7:35 PM,42.8,26.6,53,30.04,10.0,SE,8.1,-,N/A,,Clear,140,2013-01-09 03:35:00
7:55 PM,41.0,26.6,57,30.04,10.0,SE,4.6,-,N/A,,Clear,130,2013-01-09 03:55:00
8:15 PM,41.0,26.6,57,30.04,10.0,SSE,5.8,-,N/A,,Clear,150,2013-01-09 04:15:00
8:35 PM,41.0,26.6,57,30.03,10.0,SSW,18.4,23.0,N/A,,Clear,200,2013-01-09 04:35:00
9:55 PM,41.0,26.6,57,30.02,10.0,SSW,10.4,-,N/A,,Clear,200,2013-01-09 05:55:00
10:15 PM,41.0,26.6,57,30.02,10.0,South,9.2,-,N/A,,Clear,190,2013-01-09 06:15:00
10:35 PM,41.0,26.6,57,30.01,10.0,South,9.2,-,N/A,,Clear,190,2013-01-09 06:35:00
10:55 PM,39.2,26.6,61,30.01,10.0,SSW,5.8,-,N/A,,Clear,200,2013-01-09 06:55:00
11:15 PM,37.4,26.6,65,30.01,10.0,Calm,Calm,-,N/A,,Clear,0,2013-01-09 07:15:00
11:35 PM,35.6,24.8,65,30.00,10.0,Calm,Calm,-,N/A,,Clear,0,2013-01-09 07:35:00
11:55 PM,33.8,24.8,70,29.99,10.0,Calm,Calm,-,N/A,,Clear,0,2013-01-09 07:55:00